Tracking 26443 objects as of 5-Dec-2022
HD Live streaming from Space Station
objects crossing your sky now

RADUGA 4

Track RADUGA 4 now!
RADUGA 4 is classified as:


NORAD ID: 10987
Int'l Code: 1978-073A
Perigee: 35,741.4 km
Apogee: 35,813.7 km
Inclination: 8.0 °
Period: 1,435.3 minutes
Semi major axis: 42148 km
RCS: 1 m2 (large)
Launch date: July 18, 1978
Source: Commonwealth of Independent States (former USSR) (CIS)
Launch site: TYURATAM MISSILE AND SPACE COMPLEX (TTMTR)
aabbcc
Your satellite tracking list
Your tracking list is empty




NASA's NSSDC Master Catalog

Two Line Element Set (TLE):
1 10987U 78073A   22338.04635156  .00000101  00000-0  00000-0 0  9990
2 10987   8.0366 294.4423 0008572 358.2421 207.7317  1.00329681106650
Source of the keplerian elements: AFSPC